Location: Recife
(8.0585°S, 34.8848°W)
Time: 09:22:20
(UTC-03:00)

Vanguard 2 Rocket - Pass Details

Date: 19 April 2026
Orbit: 553 x 3286 km, 32.9° (Epoch: 11 May)

Event Time Altitude Azimuth Distance (km) Brightness Sun altitude
Exits shadow 03:01:27 41° 112° (ESE) 1,254 7.8 -35.1°
Drops below altitude 10° 03:06:12 10° 120° (ESE) 3,041 10.1 -33.9°
Sets 03:09:51 0° 122° (ESE) 4,435 11.1 -33.0°
